contact:dominique.lefevre@mio.osupytheas.fr, maurice.libes@osupytheas.fr, didier.mallarino@osupytheas.fr
Project:EMSO http://www.emso-fr.org/EMSO-France
Depth: 2436.0 m
Title:EMSO Ligure Ouest : Data MII capteur MICROCAT
DateTime_Computer,Latitude,Longitude,Temperature,Conductivity,Pressure,DateTime_Instrument
DateTime_Computer,Latitude,Longitude,degC,S m-1,dbar,DateTime_Instrument
2020-05-25T00:03:00Z,42.805,6.029,13.3002,4.59993,2470.11,2020-5-25T02:03:43Z
2020-05-25T00:06:03Z,42.805,6.029,13.2996,4.59993,2470.087,2020-5-25T02:06:46Z
2020-05-25T00:09:06Z,42.805,6.029,13.2993,4.59991,2470.087,2020-5-25T02:09:49Z
2020-05-25T00:12:10Z,42.805,6.029,13.2991,4.59993,2470.1,2020-5-25T02:12:52Z
2020-05-25T00:15:13Z,42.805,6.029,13.3000,4.59991,2470.077,2020-5-25T02:15:55Z
2020-05-25T00:18:16Z,42.805,6.029,13.2993,4.60001,2470.017,2020-5-25T02:18:59Z
2020-05-25T00:21:20Z,42.805,6.029,13.2998,4.59993,2470.077,2020-5-25T02:22:02Z
2020-05-25T00:24:23Z,42.805,6.029,13.3003,4.60001,2470.077,2020-5-25T02:25:06Z
2020-05-25T00:27:26Z,42.805,6.029,13.2993,4.59992,2470.087,2020-5-25T02:28:09Z
2020-05-25T00:30:29Z,42.805,6.029,13.2990,4.59993,2470.04,2020-5-25T02:31:12Z
2020-05-25T00:33:32Z,42.805,6.029,13.2996,4.59994,2470.063,2020-5-25T02:34:15Z
2020-05-25T00:36:36Z,42.805,6.029,13.2994,4.59994,2470.063,2020-5-25T02:37:18Z
2020-05-25T00:39:39Z,42.805,6.029,13.3004,4.59994,2470.077,2020-5-25T02:40:22Z
2020-05-25T00:42:42Z,42.805,6.029,13.3003,4.59985,2470.077,2020-5-25T02:43:25Z
2020-05-25T00:45:45Z,42.805,6.029,13.2998,4.59995,2470.077,2020-5-25T02:46:28Z
2020-05-25T00:48:49Z,42.805,6.029,13.2990,4.59998,2470.053,2020-5-25T02:49:31Z
2020-05-25T00:51:52Z,42.805,6.029,13.3002,4.59993,2470.063,2020-5-25T02:52:35Z
2020-05-25T00:54:55Z,42.805,6.029,13.2991,4.59988,2470.1,2020-5-25T02:55:38Z
2020-05-25T00:57:58Z,42.805,6.029,13.2986,4.59987,2470.063,2020-5-25T02:58:41Z
2020-05-25T01:01:02Z,42.805,6.029,13.2996,4.59989,2470.063,2020-5-25T03:01:44Z
2020-05-25T01:04:05Z,42.805,6.029,13.2995,4.59997,2470.077,2020-5-25T03:04:48Z
2020-05-25T01:07:08Z,42.805,6.029,13.2992,4.59987,2470.04,2020-5-25T03:07:51Z
2020-05-25T01:10:11Z,42.805,6.029,13.2990,4.59991,2470.063,2020-5-25T03:10:54Z
2020-05-25T01:13:15Z,42.805,6.029,13.2991,4.59991,2470.04,2020-5-25T03:13:57Z
2020-05-25T01:16:18Z,42.805,6.029,13.3000,4.59996,2470.03,2020-5-25T03:17:01Z
2020-05-25T01:19:21Z,42.805,6.029,13.3000,4.59996,2470.053,2020-5-25T03:20:04Z
2020-05-25T01:22:25Z,42.805,6.029,13.2993,4.59998,2470.077,2020-5-25T03:23:07Z
2020-05-25T01:25:28Z,42.805,6.029,13.2989,4.59989,2470.053,2020-5-25T03:26:11Z
2020-05-25T01:28:31Z,42.805,6.029,13.3001,4.59993,2470.017,2020-5-25T03:29:14Z
2020-05-25T01:31:34Z,42.805,6.029,13.3013,4.60000,2470.04,2020-5-25T03:32:17Z
2020-05-25T01:34:38Z,42.805,6.029,13.3000,4.60002,2470.03,2020-5-25T03:35:20Z
2020-05-25T01:37:41Z,42.805,6.029,13.3006,4.60001,2470.017,2020-5-25T03:38:24Z
2020-05-25T01:40:44Z,42.805,6.029,13.3000,4.59999,2470.03,2020-5-25T03:41:27Z
2020-05-25T01:43:47Z,42.805,6.029,13.3008,4.59997,2470.017,2020-5-25T03:44:30Z
2020-05-25T01:46:51Z,42.805,6.029,13.2991,4.60000,2470.03,2020-5-25T03:47:33Z
2020-05-25T01:49:54Z,42.805,6.029,13.3011,4.59988,2469.993,2020-5-25T03:50:37Z
2020-05-25T01:52:57Z,42.805,6.029,13.3000,4.60002,2470.053,2020-5-25T03:53:40Z
2020-05-25T01:56:00Z,42.805,6.029,13.3016,4.60002,2470.03,2020-5-25T03:56:43Z
2020-05-25T01:59:04Z,42.805,6.029,13.2993,4.59996,2470.04,2020-5-25T03:59:46Z
2020-05-25T02:02:07Z,42.805,6.029,13.2994,4.60000,2470.03,2020-5-25T04:02:50Z
2020-05-25T02:05:11Z,42.805,6.029,13.3005,4.59996,2470.007,2020-5-25T04:05:53Z
2020-05-25T02:08:14Z,42.805,6.029,13.3003,4.59996,2470.007,2020-5-25T04:08:56Z
2020-05-25T02:11:17Z,42.805,6.029,13.3009,4.60001,2469.97,2020-5-25T04:12:00Z
2020-05-25T02:14:20Z,42.805,6.029,13.3007,4.59996,2470.007,2020-5-25T04:15:03Z
2020-05-25T02:17:23Z,42.805,6.029,13.3002,4.59994,2470.007,2020-5-25T04:18:06Z
2020-05-25T02:20:27Z,42.805,6.029,13.3006,4.59999,2470.007,2020-5-25T04:21:09Z
2020-05-25T02:23:30Z,42.805,6.029,13.2996,4.60000,2469.97,2020-5-25T04:24:13Z
2020-05-25T02:26:33Z,42.805,6.029,13.2998,4.60004,2470.007,2020-5-25T04:27:16Z
2020-05-25T02:29:36Z,42.805,6.029,13.2990,4.59988,2469.993,2020-5-25T04:30:19Z
2020-05-25T02:32:40Z,42.805,6.029,13.2991,4.59994,2469.993,2020-5-25T04:33:22Z
2020-05-25T02:35:43Z,42.805,6.029,13.3002,4.59995,2470.007,2020-5-25T04:36:26Z
2020-05-25T02:38:46Z,42.805,6.029,13.2995,4.60015,2469.993,2020-5-25T04:39:29Z
2020-05-25T02:41:49Z,42.805,6.029,13.2996,4.59993,2469.97,2020-5-25T04:42:32Z
2020-05-25T02:44:53Z,42.805,6.029,13.3002,4.59995,2470.04,2020-5-25T04:45:35Z
2020-05-25T02:47:56Z,42.805,6.029,13.3002,4.60001,2469.979,2020-5-25T04:48:39Z
2020-05-25T02:50:59Z,42.805,6.029,13.2998,4.60006,2470.007,2020-5-25T04:51:42Z
2020-05-25T02:54:03Z,42.805,6.029,13.3005,4.59994,2469.984,2020-5-25T04:54:45Z
2020-05-25T02:57:06Z,42.805,6.029,13.3003,4.59993,2469.993,2020-5-25T04:57:49Z
2020-05-25T03:00:09Z,42.805,6.029,13.2998,4.59987,2470.007,2020-5-25T05:00:52Z
2020-05-25T03:03:13Z,42.805,6.029,13.2991,4.59982,2469.984,2020-5-25T05:03:55Z
2020-05-25T03:06:16Z,42.805,6.029,13.2994,4.60002,2469.984,2020-5-25T05:06:59Z
2020-05-25T03:09:19Z,42.805,6.029,13.2999,4.59994,2470.017,2020-5-25T05:10:02Z
2020-05-25T03:12:22Z,42.805,6.029,13.3000,4.59991,2469.984,2020-5-25T05:13:05Z
2020-05-25T03:15:26Z,42.805,6.029,13.2993,4.59992,2469.993,2020-5-25T05:16:08Z
2020-05-25T03:18:29Z,42.805,6.029,13.3007,4.59998,2469.947,2020-5-25T05:19:12Z
2020-05-25T03:21:32Z,42.805,6.029,13.3000,4.60015,2470.03,2020-5-25T05:22:15Z
2020-05-25T03:24:35Z,42.805,6.029,13.2996,4.60016,2469.984,2020-5-25T05:25:18Z
2020-05-25T03:27:39Z,42.805,6.029,13.2996,4.59994,2469.97,2020-5-25T05:28:21Z
2020-05-25T03:30:42Z,42.805,6.029,13.2998,4.59994,2469.984,2020-5-25T05:31:25Z
2020-05-25T03:33:45Z,42.805,6.029,13.3004,4.59999,2470.007,2020-5-25T05:34:28Z
2020-05-25T03:36:49Z,42.805,6.029,13.3006,4.59999,2469.96,2020-5-25T05:37:31Z
2020-05-25T03:39:52Z,42.805,6.029,13.2991,4.59990,2469.97,2020-5-25T05:40:35Z
2020-05-25T03:42:55Z,42.805,6.029,13.2998,4.59995,2469.984,2020-5-25T05:43:38Z
2020-05-25T03:45:58Z,42.805,6.029,13.2995,4.59999,2469.984,2020-5-25T05:46:41Z
2020-05-25T03:49:02Z,42.805,6.029,13.2996,4.59996,2469.97,2020-5-25T05:49:44Z
2020-05-25T03:52:05Z,42.805,6.029,13.3000,4.59986,2469.993,2020-5-25T05:52:48Z
2020-05-25T03:55:08Z,42.805,6.029,13.3000,4.59994,2469.984,2020-5-25T05:55:51Z
2020-05-25T03:58:11Z,42.805,6.029,13.3000,4.59999,2469.97,2020-5-25T05:58:54Z
2020-05-25T04:01:15Z,42.805,6.029,13.2998,4.60000,2469.993,2020-5-25T06:01:57Z
2020-05-25T04:04:18Z,42.805,6.029,13.2997,4.59998,2469.947,2020-5-25T06:05:01Z
2020-05-25T04:07:21Z,42.805,6.029,13.2991,4.59999,2469.984,2020-5-25T06:08:04Z
2020-05-25T04:10:24Z,42.805,6.029,13.2999,4.60004,2469.984,2020-5-25T06:11:07Z
2020-05-25T04:13:28Z,42.805,6.029,13.3004,4.59983,2469.97,2020-5-25T06:14:10Z
2020-05-25T04:16:31Z,42.805,6.029,13.2998,4.59993,2469.97,2020-5-25T06:17:14Z
2020-05-25T04:19:34Z,42.805,6.029,13.3009,4.59997,2469.96,2020-5-25T06:20:17Z
2020-05-25T04:22:37Z,42.805,6.029,13.2992,4.59989,2470.007,2020-5-25T06:23:20Z
2020-05-25T04:25:40Z,42.805,6.029,13.2997,4.59986,2469.993,2020-5-25T06:26:23Z
2020-05-25T04:28:44Z,42.805,6.029,13.2986,4.60000,2469.97,2020-5-25T06:29:27Z
2020-05-25T04:31:47Z,42.805,6.029,13.2998,4.60000,2470.007,2020-5-25T06:32:30Z
2020-05-25T04:34:50Z,42.805,6.029,13.2993,4.59990,2469.993,2020-5-25T06:35:33Z
2020-05-25T04:37:54Z,42.805,6.029,13.2985,4.59994,2469.984,2020-5-25T06:38:36Z
2020-05-25T04:40:57Z,42.805,6.029,13.3009,4.59996,2469.984,2020-5-25T06:41:40Z
2020-05-25T04:44:00Z,42.805,6.029,13.2999,4.60001,2469.993,2020-5-25T06:44:43Z
2020-05-25T04:47:03Z,42.805,6.029,13.3011,4.60004,2469.984,2020-5-25T06:47:46Z
2020-05-25T04:50:07Z,42.805,6.029,13.3010,4.60003,2470.007,2020-5-25T06:50:49Z
2020-05-25T04:53:10Z,42.805,6.029,13.3008,4.59989,2469.993,2020-5-25T06:53:53Z
2020-05-25T04:56:13Z,42.805,6.029,13.3000,4.60012,2469.984,2020-5-25T06:56:56Z
2020-05-25T04:59:16Z,42.805,6.029,13.2993,4.59995,2470.007,2020-5-25T06:59:59Z
2020-05-25T05:02:19Z,42.805,6.029,13.2995,4.60011,2469.984,2020-5-25T07:03:02Z
2020-05-25T05:05:23Z,42.805,6.029,13.2995,4.59994,2469.96,2020-5-25T07:06:05Z
2020-05-25T05:08:26Z,42.805,6.029,13.3003,4.59996,2470.007,2020-5-25T07:09:09Z
2020-05-25T05:11:29Z,42.805,6.029,13.2997,4.59999,2470.007,2020-5-25T07:12:12Z
2020-05-25T05:14:32Z,42.805,6.029,13.2995,4.60003,2469.97,2020-5-25T07:15:15Z
2020-05-25T05:17:36Z,42.805,6.029,13.3007,4.59997,2470.03,2020-5-25T07:18:18Z
2020-05-25T05:20:39Z,42.805,6.029,13.2998,4.60002,2470.03,2020-5-25T07:21:22Z
2020-05-25T05:23:42Z,42.805,6.029,13.3013,4.60009,2470.017,2020-5-25T07:24:25Z
2020-05-25T05:26:45Z,42.805,6.029,13.3003,4.59999,2470.053,2020-5-25T07:27:28Z
2020-05-25T05:29:49Z,42.805,6.029,13.3008,4.60003,2469.993,2020-5-25T07:30:31Z
2020-05-25T05:32:52Z,42.805,6.029,13.2990,4.60022,2469.97,2020-5-25T07:33:34Z
2020-05-25T05:35:55Z,42.805,6.029,13.2999,4.59996,2470.017,2020-5-25T07:36:38Z
2020-05-25T05:38:58Z,42.805,6.029,13.3023,4.60006,2470.053,2020-5-25T07:39:41Z
2020-05-25T05:42:01Z,42.805,6.029,13.3009,4.60009,2470.03,2020-5-25T07:42:44Z
2020-05-25T05:45:05Z,42.805,6.029,13.2987,4.59996,2470.053,2020-5-25T07:45:47Z
2020-05-25T05:48:08Z,42.805,6.029,13.3006,4.59998,2470.053,2020-5-25T07:48:51Z
2020-05-25T05:51:11Z,42.805,6.029,13.2995,4.60003,2470.03,2020-5-25T07:51:54Z
2020-05-25T05:54:15Z,42.805,6.029,13.3005,4.60009,2470.03,2020-5-25T07:54:57Z
2020-05-25T05:57:18Z,42.805,6.029,13.3009,4.60001,2470.053,2020-5-25T07:58:00Z
2020-05-25T06:00:21Z,42.805,6.029,13.3005,4.60003,2470.063,2020-5-25T08:01:04Z
2020-05-25T06:03:24Z,42.805,6.029,13.2996,4.60011,2470.04,2020-5-25T08:04:07Z
2020-05-25T06:06:28Z,42.805,6.029,13.2999,4.59994,2470.053,2020-5-25T08:07:10Z
2020-05-25T06:09:31Z,42.805,6.029,13.2983,4.59993,2470.053,2020-5-25T08:10:13Z
2020-05-25T06:12:34Z,42.805,6.029,13.2995,4.59995,2470.077,2020-5-25T08:13:17Z
2020-05-25T06:15:37Z,42.805,6.029,13.3009,4.59995,2470.04,2020-5-25T08:16:20Z
2020-05-25T06:18:40Z,42.805,6.029,13.3008,4.60001,2470.1,2020-5-25T08:19:23Z
2020-05-25T06:21:44Z,42.805,6.029,13.3000,4.60011,2470.077,2020-5-25T08:22:26Z
2020-05-25T06:24:47Z,42.805,6.029,13.2997,4.60003,2470.077,2020-5-25T08:25:30Z
2020-05-25T06:27:50Z,42.805,6.029,13.2996,4.59993,2470.063,2020-5-25T08:28:33Z
2020-05-25T06:30:53Z,42.805,6.029,13.2984,4.60004,2470.04,2020-5-25T08:31:36Z
2020-05-25T06:33:57Z,42.805,6.029,13.3002,4.60016,2470.049,2020-5-25T08:34:39Z
2020-05-25T06:37:00Z,42.805,6.029,13.3003,4.60002,2470.063,2020-5-25T08:37:43Z
2020-05-25T06:40:03Z,42.805,6.029,13.3006,4.60007,2470.063,2020-5-25T08:40:46Z
2020-05-25T06:43:06Z,42.805,6.029,13.2997,4.59999,2470.063,2020-5-25T08:43:49Z
2020-05-25T06:46:10Z,42.805,6.029,13.3004,4.59999,2470.087,2020-5-25T08:46:52Z
2020-05-25T06:49:13Z,42.805,6.029,13.3004,4.60017,2470.087,2020-5-25T08:49:56Z
2020-05-25T06:52:16Z,42.805,6.029,13.3000,4.60006,2470.1,2020-5-25T08:52:59Z
2020-05-25T06:55:19Z,42.805,6.029,13.3004,4.59995,2470.1,2020-5-25T08:56:02Z
2020-05-25T06:58:23Z,42.805,6.029,13.2999,4.60008,2470.087,2020-5-25T08:59:05Z
2020-05-25T07:01:26Z,42.805,6.029,13.3003,4.60000,2470.087,2020-5-25T09:02:09Z
2020-05-25T07:04:29Z,42.805,6.029,13.3003,4.60008,2470.124,2020-5-25T09:05:12Z
2020-05-25T07:07:32Z,42.805,6.029,13.3014,4.59992,2470.077,2020-5-25T09:08:15Z
2020-05-25T07:10:36Z,42.805,6.029,13.2991,4.60003,2470.124,2020-5-25T09:11:19Z
2020-05-25T07:13:39Z,42.805,6.029,13.2997,4.60003,2470.11,2020-5-25T09:14:22Z
2020-05-25T07:16:42Z,42.805,6.029,13.2992,4.59991,2470.063,2020-5-25T09:17:25Z
2020-05-25T07:19:46Z,42.805,6.029,13.2982,4.60019,2470.11,2020-5-25T09:20:28Z
2020-05-25T07:22:49Z,42.805,6.029,13.2984,4.59999,2470.11,2020-5-25T09:23:31Z
2020-05-25T07:25:52Z,42.805,6.029,13.2996,4.59994,2470.1,2020-5-25T09:26:35Z
2020-05-25T07:28:55Z,42.805,6.029,13.2981,4.60007,2470.063,2020-5-25T09:29:38Z
2020-05-25T07:31:59Z,42.805,6.029,13.2986,4.60005,2470.063,2020-5-25T09:32:41Z
2020-05-25T07:35:02Z,42.805,6.029,13.2991,4.59991,2470.11,2020-5-25T09:35:44Z
2020-05-25T07:38:05Z,42.805,6.029,13.2996,4.59989,2470.133,2020-5-25T09:38:48Z
2020-05-25T07:41:08Z,42.805,6.029,13.3001,4.59999,2470.11,2020-5-25T09:41:51Z
2020-05-25T07:44:12Z,42.805,6.029,13.3003,4.59994,2470.124,2020-5-25T09:44:54Z
2020-05-25T07:47:15Z,42.805,6.029,13.2995,4.59999,2470.087,2020-5-25T09:47:58Z
2020-05-25T07:50:18Z,42.805,6.029,13.2991,4.60007,2470.1,2020-5-25T09:51:01Z
2020-05-25T07:53:21Z,42.805,6.029,13.2991,4.60000,2470.11,2020-5-25T09:54:04Z
2020-05-25T07:56:24Z,42.805,6.029,13.2994,4.59990,2470.11,2020-5-25T09:57:07Z
2020-05-25T07:59:28Z,42.805,6.029,13.2991,4.60012,2470.147,2020-5-25T10:00:10Z
2020-05-25T08:02:31Z,42.805,6.029,13.2995,4.60025,2470.1,2020-5-25T10:03:14Z
2020-05-25T08:05:34Z,42.805,6.029,13.2996,4.60001,2470.124,2020-5-25T10:06:17Z
2020-05-25T08:08:37Z,42.805,6.029,13.2988,4.60003,2470.124,2020-5-25T10:09:20Z
2020-05-25T08:11:41Z,42.805,6.029,13.2990,4.60005,2470.077,2020-5-25T10:12:23Z
2020-05-25T08:14:44Z,42.805,6.029,13.3000,4.60006,2470.077,2020-5-25T10:15:27Z
2020-05-25T08:17:47Z,42.805,6.029,13.3013,4.60001,2470.063,2020-5-25T10:18:30Z
2020-05-25T08:20:50Z,42.805,6.029,13.2996,4.59994,2470.1,2020-5-25T10:21:33Z
2020-05-25T08:23:54Z,42.805,6.029,13.2990,4.60011,2470.087,2020-5-25T10:24:36Z
2020-05-25T08:26:57Z,42.805,6.029,13.3030,4.59991,2470.1,2020-5-25T10:27:40Z
2020-05-25T08:30:00Z,42.805,6.029,13.2998,4.60001,2470.063,2020-5-25T10:30:43Z
2020-05-25T08:33:03Z,42.805,6.029,13.2983,4.59999,2470.087,2020-5-25T10:33:46Z
2020-05-25T08:36:07Z,42.805,6.029,13.2986,4.60006,2470.087,2020-5-25T10:36:49Z
2020-05-25T08:39:10Z,42.805,6.029,13.2989,4.60003,2470.1,2020-5-25T10:39:53Z
2020-05-25T08:42:13Z,42.805,6.029,13.2991,4.59999,2470.1,2020-5-25T10:42:56Z
2020-05-25T08:45:16Z,42.805,6.029,13.2988,4.59993,2470.096,2020-5-25T10:45:59Z
2020-05-25T08:48:20Z,42.805,6.029,13.2983,4.60016,2470.087,2020-5-25T10:49:02Z
2020-05-25T08:51:23Z,42.805,6.029,13.2999,4.60001,2470.077,2020-5-25T10:52:06Z
2020-05-25T08:54:26Z,42.805,6.029,13.2995,4.60003,2470.077,2020-5-25T10:55:09Z
2020-05-25T08:57:29Z,42.805,6.029,13.2982,4.60027,2470.077,2020-5-25T10:58:12Z
2020-05-25T09:00:33Z,42.805,6.029,13.3000,4.59998,2470.063,2020-5-25T11:01:15Z
2020-05-25T09:03:36Z,42.805,6.029,13.3005,4.60000,2470.087,2020-5-25T11:04:19Z
2020-05-25T09:06:39Z,42.805,6.029,13.2991,4.60006,2470.087,2020-5-25T11:07:22Z
2020-05-25T09:09:42Z,42.805,6.029,13.2993,4.60002,2470.1,2020-5-25T11:10:25Z
2020-05-25T09:12:46Z,42.805,6.029,13.2986,4.60014,2470.1,2020-5-25T11:13:28Z
2020-05-25T09:15:49Z,42.805,6.029,13.2990,4.60016,2470.1,2020-5-25T11:16:32Z
2020-05-25T09:18:52Z,42.805,6.029,13.2990,4.60003,2470.077,2020-5-25T11:19:35Z
2020-05-25T09:21:56Z,42.805,6.029,13.2988,4.59997,2470.087,2020-5-25T11:22:38Z
2020-05-25T09:24:59Z,42.805,6.029,13.3003,4.60000,2470.1,2020-5-25T11:25:42Z
2020-05-25T09:28:02Z,42.805,6.029,13.2979,4.59990,2470.087,2020-5-25T11:28:45Z
2020-05-25T09:31:05Z,42.805,6.029,13.2993,4.60001,2470.1,2020-5-25T11:31:48Z
2020-05-25T09:34:09Z,42.805,6.029,13.2993,4.60006,2470.063,2020-5-25T11:34:51Z
2020-05-25T09:37:12Z,42.805,6.029,13.3006,4.59996,2470.053,2020-5-25T11:37:55Z
2020-05-25T09:40:15Z,42.805,6.029,13.2993,4.60027,2470.063,2020-5-25T11:40:58Z
2020-05-25T09:43:18Z,42.805,6.029,13.2977,4.59980,2470.063,2020-5-25T11:44:01Z
2020-05-25T09:46:22Z,42.805,6.029,13.2994,4.60006,2470.091,2020-5-25T11:47:04Z
2020-05-25T09:49:25Z,42.805,6.029,13.2978,4.59995,2470.053,2020-5-25T11:50:08Z
2020-05-25T09:52:28Z,42.805,6.029,13.2988,4.59986,2470.063,2020-5-25T11:53:11Z
2020-05-25T09:55:31Z,42.805,6.029,13.2994,4.60001,2470.063,2020-5-25T11:56:14Z
2020-05-25T09:58:35Z,42.805,6.029,13.2994,4.59990,2470.063,2020-5-25T11:59:17Z
2020-05-25T10:01:38Z,42.805,6.029,13.2993,4.59981,2470.063,2020-5-25T12:02:21Z
2020-05-25T10:04:41Z,42.805,6.029,13.2983,4.60017,2470.053,2020-5-25T12:05:24Z
2020-05-25T10:07:44Z,42.805,6.029,13.2979,4.59990,2470.063,2020-5-25T12:08:27Z
2020-05-25T10:10:48Z,42.805,6.029,13.2986,4.59997,2470.063,2020-5-25T12:11:30Z
2020-05-25T10:13:51Z,42.805,6.029,13.2976,4.59991,2470.053,2020-5-25T12:14:33Z
2020-05-25T10:16:54Z,42.805,6.029,13.2984,4.59988,2470.017,2020-5-25T12:17:37Z
2020-05-25T10:19:57Z,42.805,6.029,13.2981,4.60001,2470.04,2020-5-25T12:20:40Z
2020-05-25T10:23:00Z,42.805,6.029,13.2988,4.59991,2470.03,2020-5-25T12:23:43Z
2020-05-25T10:26:04Z,42.805,6.029,13.2982,4.60002,2470.063,2020-5-25T12:26:46Z
2020-05-25T10:29:07Z,42.805,6.029,13.2982,4.60014,2470.053,2020-5-25T12:29:50Z
2020-05-25T10:32:10Z,42.805,6.029,13.2986,4.59991,2470.017,2020-5-25T12:32:53Z
2020-05-25T10:35:14Z,42.805,6.029,13.2996,4.59993,2470.017,2020-5-25T12:35:57Z
2020-05-25T10:38:18Z,42.805,6.029,13.2979,4.59991,2470.017,2020-5-25T12:39:00Z
2020-05-25T10:41:21Z,42.805,6.029,13.2996,4.59988,2470.04,2020-5-25T12:42:03Z
2020-05-25T10:44:24Z,42.805,6.029,13.2983,4.59982,2469.993,2020-5-25T12:45:07Z
2020-05-25T10:47:27Z,42.805,6.029,13.2984,4.59985,2470.007,2020-5-25T12:48:10Z
2020-05-25T10:50:30Z,42.805,6.029,13.3006,4.59999,2469.993,2020-5-25T12:51:13Z
2020-05-25T10:53:34Z,42.805,6.029,13.2998,4.59999,2470.017,2020-5-25T12:54:16Z
2020-05-25T10:56:37Z,42.805,6.029,13.2986,4.59985,2470.017,2020-5-25T12:57:20Z
2020-05-25T10:59:40Z,42.805,6.029,13.2984,4.59983,2470.017,2020-5-25T13:00:23Z
2020-05-25T11:02:43Z,42.805,6.029,13.2996,4.59985,2470.017,2020-5-25T13:03:26Z
2020-05-25T11:05:47Z,42.805,6.029,13.2986,4.59981,2470.017,2020-5-25T13:06:29Z
2020-05-25T11:08:50Z,42.805,6.029,13.2984,4.60004,2470.03,2020-5-25T13:09:33Z
2020-05-25T11:11:53Z,42.805,6.029,13.2980,4.59994,2469.993,2020-5-25T13:12:36Z
2020-05-25T11:14:57Z,42.805,6.029,13.2979,4.59993,2470.03,2020-5-25T13:15:39Z
2020-05-25T11:18:00Z,42.805,6.029,13.2996,4.59997,2469.993,2020-5-25T13:18:43Z
2020-05-25T11:21:03Z,42.805,6.029,13.2981,4.59981,2470.007,2020-5-25T13:21:46Z
2020-05-25T11:24:06Z,42.805,6.029,13.2991,4.60009,2470.007,2020-5-25T13:24:49Z
2020-05-25T11:27:10Z,42.805,6.029,13.2986,4.59996,2470.007,2020-5-25T13:27:52Z
2020-05-25T11:30:13Z,42.805,6.029,13.2990,4.59987,2469.993,2020-5-25T13:30:56Z
2020-05-25T11:33:16Z,42.805,6.029,13.2985,4.59988,2470.04,2020-5-25T13:33:59Z
2020-05-25T11:36:19Z,42.805,6.029,13.2982,4.59991,2469.993,2020-5-25T13:37:02Z
2020-05-25T11:39:23Z,42.805,6.029,13.2994,4.59999,2469.993,2020-5-25T13:40:05Z
2020-05-25T11:42:26Z,42.805,6.029,13.2993,4.59991,2470.017,2020-5-25T13:43:09Z
2020-05-25T11:45:29Z,42.805,6.029,13.2998,4.59988,2470.03,2020-5-25T13:46:12Z
2020-05-25T11:48:32Z,42.805,6.029,13.2982,4.59988,2469.97,2020-5-25T13:49:15Z
2020-05-25T11:51:36Z,42.805,6.029,13.2990,4.59996,2469.97,2020-5-25T13:52:18Z
2020-05-25T11:54:39Z,42.805,6.029,13.2992,4.59996,2469.984,2020-5-25T13:55:22Z
2020-05-25T11:57:42Z,42.805,6.029,13.2995,4.59993,2469.984,2020-5-25T13:58:25Z
2020-05-25T12:00:45Z,42.805,6.029,13.2991,4.59996,2470.03,2020-5-25T14:01:28Z
2020-05-25T12:03:49Z,42.805,6.029,13.2993,4.59994,2470.007,2020-5-25T14:04:31Z
2020-05-25T12:06:52Z,42.805,6.029,13.2996,4.59994,2470.007,2020-5-25T14:07:35Z
2020-05-25T12:09:55Z,42.805,6.029,13.2995,4.59983,2469.993,2020-5-25T14:10:38Z
2020-05-25T12:12:58Z,42.805,6.029,13.3001,4.59988,2469.993,2020-5-25T14:13:41Z
2020-05-25T12:16:02Z,42.805,6.029,13.2983,4.59986,2470.03,2020-5-25T14:16:44Z
2020-05-25T12:19:05Z,42.805,6.029,13.2998,4.59994,2469.993,2020-5-25T14:19:48Z
2020-05-25T12:22:08Z,42.805,6.029,13.2992,4.59986,2470.007,2020-5-25T14:22:51Z
2020-05-25T12:25:11Z,42.805,6.029,13.2988,4.59991,2469.97,2020-5-25T14:25:54Z
2020-05-25T12:28:15Z,42.805,6.029,13.2985,4.59981,2469.97,2020-5-25T14:28:57Z
2020-05-25T12:31:18Z,42.805,6.029,13.2987,4.59993,2469.97,2020-5-25T14:32:01Z
2020-05-25T12:34:21Z,42.805,6.029,13.2987,4.59994,2469.984,2020-5-25T14:35:04Z
2020-05-25T12:37:24Z,42.805,6.029,13.2988,4.59987,2469.984,2020-5-25T14:38:07Z
2020-05-25T12:40:28Z,42.805,6.029,13.2983,4.59990,2469.96,2020-5-25T14:41:10Z
2020-05-25T12:43:31Z,42.805,6.029,13.3000,4.59988,2469.947,2020-5-25T14:44:14Z
2020-05-25T12:46:34Z,42.805,6.029,13.2992,4.59997,2469.993,2020-5-25T14:47:17Z
2020-05-25T12:49:37Z,42.805,6.029,13.2990,4.59986,2470.007,2020-5-25T14:50:20Z
2020-05-25T12:52:40Z,42.805,6.029,13.2996,4.59991,2469.97,2020-5-25T14:53:23Z
2020-05-25T12:55:44Z,42.805,6.029,13.2989,4.59991,2469.984,2020-5-25T14:56:26Z
2020-05-25T12:58:47Z,42.805,6.029,13.2987,4.59983,2469.96,2020-5-25T14:59:30Z
2020-05-25T13:01:50Z,42.805,6.029,13.2994,4.59986,2469.96,2020-5-25T15:02:33Z
2020-05-25T13:04:54Z,42.805,6.029,13.2993,4.59987,2469.947,2020-5-25T15:05:36Z
2020-05-25T13:07:57Z,42.805,6.029,13.2984,4.59985,2469.97,2020-5-25T15:08:40Z
2020-05-25T13:11:00Z,42.805,6.029,13.2991,4.59986,2469.984,2020-5-25T15:11:43Z
2020-05-25T13:14:03Z,42.805,6.029,13.2990,4.59988,2469.937,2020-5-25T15:14:46Z
2020-05-25T13:17:06Z,42.805,6.029,13.2990,4.59986,2469.947,2020-5-25T15:17:49Z
2020-05-25T13:20:10Z,42.805,6.029,13.2989,4.59985,2469.947,2020-5-25T15:20:52Z
2020-05-25T13:23:13Z,42.805,6.029,13.2988,4.59985,2469.923,2020-5-25T15:23:56Z
2020-05-25T13:26:16Z,42.805,6.029,13.2987,4.59985,2469.923,2020-5-25T15:26:59Z
2020-05-25T13:29:19Z,42.805,6.029,13.2993,4.59985,2469.96,2020-5-25T15:30:02Z
2020-05-25T13:32:23Z,42.805,6.029,13.2987,4.59985,2469.923,2020-5-25T15:33:05Z
2020-05-25T13:35:26Z,42.805,6.029,13.2995,4.59987,2469.97,2020-5-25T15:36:09Z
2020-05-25T13:38:29Z,42.805,6.029,13.2990,4.60002,2469.96,2020-5-25T15:39:12Z
2020-05-25T13:41:32Z,42.805,6.029,13.2991,4.59986,2469.947,2020-5-25T15:42:15Z
2020-05-25T13:44:36Z,42.805,6.029,13.2992,4.59983,2469.9,2020-5-25T15:45:18Z
2020-05-25T13:47:39Z,42.805,6.029,13.2986,4.59983,2469.947,2020-5-25T15:48:22Z
2020-05-25T13:50:42Z,42.805,6.029,13.2986,4.59982,2469.937,2020-5-25T15:51:25Z
2020-05-25T13:53:46Z,42.805,6.029,13.2984,4.59976,2469.947,2020-5-25T15:54:28Z
2020-05-25T13:56:49Z,42.805,6.029,13.2992,4.59986,2469.923,2020-5-25T15:57:32Z
2020-05-25T13:59:52Z,42.805,6.029,13.2994,4.59983,2469.937,2020-5-25T16:00:35Z
2020-05-25T14:02:55Z,42.805,6.029,13.2990,4.59984,2469.9,2020-5-25T16:03:38Z
2020-05-25T14:05:59Z,42.805,6.029,13.2988,4.59984,2469.923,2020-5-25T16:06:41Z
2020-05-25T14:09:02Z,42.805,6.029,13.2984,4.59988,2469.947,2020-5-25T16:09:45Z
2020-05-25T14:12:05Z,42.805,6.029,13.2984,4.59985,2469.97,2020-5-25T16:12:48Z
2020-05-25T14:15:08Z,42.805,6.029,13.2983,4.59984,2469.947,2020-5-25T16:15:51Z
2020-05-25T14:18:12Z,42.805,6.029,13.2979,4.59984,2469.9,2020-5-25T16:18:55Z
2020-05-25T14:21:15Z,42.805,6.029,13.2996,4.59983,2469.937,2020-5-25T16:21:58Z
2020-05-25T14:24:19Z,42.805,6.029,13.2991,4.59983,2469.9,2020-5-25T16:25:01Z
2020-05-25T14:27:22Z,42.805,6.029,13.2984,4.59986,2469.923,2020-5-25T16:28:05Z
2020-05-25T14:30:25Z,42.805,6.029,13.2984,4.59986,2469.914,2020-5-25T16:31:08Z
2020-05-25T14:33:28Z,42.805,6.029,13.2988,4.59984,2469.923,2020-5-25T16:34:11Z
2020-05-25T14:36:32Z,42.805,6.029,13.2990,4.59983,2469.9,2020-5-25T16:37:15Z
2020-05-25T14:39:35Z,42.805,6.029,13.2986,4.59990,2469.9,2020-5-25T16:40:18Z
2020-05-25T14:42:38Z,42.805,6.029,13.2986,4.59984,2469.876,2020-5-25T16:43:21Z
2020-05-25T14:45:42Z,42.805,6.029,13.2998,4.59981,2469.914,2020-5-25T16:46:24Z
2020-05-25T14:48:45Z,42.805,6.029,13.2993,4.59984,2469.9,2020-5-25T16:49:27Z
2020-05-25T14:51:48Z,42.805,6.029,13.2982,4.59984,2469.923,2020-5-25T16:52:31Z
2020-05-25T14:54:51Z,42.805,6.029,13.2988,4.59982,2469.9,2020-5-25T16:55:34Z
2020-05-25T14:57:54Z,42.805,6.029,13.2993,4.59985,2469.937,2020-5-25T16:58:37Z
2020-05-25T15:00:58Z,42.805,6.029,13.2993,4.59981,2469.914,2020-5-25T17:01:40Z
2020-05-25T15:04:01Z,42.805,6.029,13.2993,4.59983,2469.914,2020-5-25T17:04:44Z
2020-05-25T15:07:04Z,42.805,6.029,13.2986,4.59984,2469.9,2020-5-25T17:07:47Z
2020-05-25T15:10:07Z,42.805,6.029,13.2987,4.59986,2469.89,2020-5-25T17:10:50Z
2020-05-25T15:13:11Z,42.805,6.029,13.2988,4.59992,2469.914,2020-5-25T17:13:53Z
2020-05-25T15:16:14Z,42.805,6.029,13.2989,4.59988,2469.923,2020-5-25T17:16:57Z